Retour au catalogue

EXPRESS AM-44

ActifCommunicationsGEO
NORAD 33595·PAYLOAD·🇷🇺 Russia

Lancé Feb 11, 2009 depuis Baikonur Cosmodrome

Loading…

TLE

FraisSource: Space-Track

Époque: Sep 14, 2026, 15:27 UTC

1 33595U 09007A   26257.64426133 -.00000096  00000-0  00000-0 0  9998
2 33595   3.6874  77.2437 0003561  96.1099  41.2102  1.00272140 53188

Suivez EXPRESS AM-44 en temps réel avec AllMySat

Download on the App Store